STARLINK-34482

Last updated on Fri Aug 08 2025 00:02:05 GMT+0000 (Coordinated Universal Time)

1 64782U 25147AD 25218.86820819 .00080160 00000+0 14317-2 0 9998 2 64782 53.1599 163.2694 0000952 92.8977 267.2142 15.49366246 5869
UTC large
Height (km)
Speed (km/s)
/
Latitude / Longitude
Inclination (degrees)
Orbital Period (minutes)
Azimuth
Elevation
Range (km)
Doppler Factor

Next 0 passes for location: London (51.5072 / 0.1276)

Sorry there are no passes over London.